Location: Carabito
(9.8355°N, 67.9249°W)
Time: 09:37:12
(UTC+00:00)

CZ-4B R/B - Pass Details

Date: 14 August 2024
Orbit: 807 x 881 km, 99.0° (Epoch: 10 September)

Event Time Altitude Azimuth Distance (km) Brightness Sun altitude
Exits shadow 00:28:56 50° 72° (ENE) 1,113 3.4 -24.1°
Drops below altitude 10° 00:34:15 10° 2° (N) 2,531 5.9 -25.3°
Sets 00:36:42 0° 357° (N) 3,468 6.7 -25.9°
